Theta_e
297 297 296 296 295 295 295 295 295 295 295 294 293 293 292 292 292 293 293 293 293 293 293 292 291 289 287 285 285 284 284 283 282 282 282 282 282 282 282 282 282 282
297 296 296 295 295 295 295 295 295 295 294 294 293 293 292 292 293 293 293 293 293 293 292 291 289 287 285 285 284 284 283 283 282 282 281 281 282 282 282 282 282 282
296 296 295 295 295 295 295 295 294 294 294 293 292 292 292 293 293 293 293 293 293 293 292 290 287 286 285 284 284 283 283 282 282 281 281 282 282 282 282 283 282 282
296 295 295 295 295 295 295 294 294 294 293 292 292 292 293 293 293 293 293 293 293 292 290 288 286 285 284 284 283 283 282 282 281 281 281 282 282 282 283 283 282 282
296 295 296 295 295 295 294 294 294 293 292 292 292 293 293 293 293 293 293 293 292 290 288 286 285 284 284 283 283 283 282 282 281 281 282 282 282 283 282 282 282 282
296 295 295 295 294 294 294 293 293 292 292 292 293 293 293 293 293 293 293 292 290 289 287 285 284 284 284 283 283 282 282 281 281 281 282 282 283 283 282 282 282 281
295 295 294 294 294 294 293 293 292 292 292 292 293 293 293 293 293 292 291 290 289 287 286 285 284 284 283 283 282 282 282 281 281 281 282 282 283 283 282 282 282 280
295 295 294 294 294 293 293 292 292 292 292 293 293 293 293 293 292 291 290 289 287 286 285 284 284 283 283 283 282 282 281 281 281 282 282 283 283 283 282 281 281 280
295 294 294 294 293 293 292 292 292 293 293 293 293 293 292 292 291 290 289 287 286 285 284 284 283 283 283 282 282 282 281 281 282 282 283 283 283 282 281 281 280 279
294 294 294 293 293 293 293 293 293 293 293 293 292 292 291 291 290 289 287 286 285 284 284 283 283 283 283 282 282 282 281 281 282 282 282 283 282 281 280 279 279 279
294 294 293 293 293 293 293 293 293 292 292 292 291 291 290 290 289 288 286 285 284 284 283 283 283 283 283 282 282 281 281 282 282 282 282 282 281 280 279 279 279 279
294 294 294 294 294 293 293 292 292 292 292 291 291 291 290 290 288 287 285 284 284 283 283 283 283 283 283 282 282 281 281 282 282 282 282 281 280 279 279 279 279 279
294 294 294 294 293 293 293 292 292 292 292 291 291 291 290 289 288 286 284 284 283 283 283 283 283 283 282 282 281 281 281 282 282 282 282 281 280 279 279 279 279 279
295 294 294 293 293 293 293 293 292 292 291 291 291 290 290 289 287 285 284 283 283 283 283 283 283 283 282 282 281 281 281 282 282 282 281 280 279 279 279 279 279 279
294 294 294 293 293 293 293 293 293 292 291 291 290 290 289 288 287 285 283 283 283 283 283 283 283 283 282 281 281 281 281 282 282 282 281 280 279 279 279 279 279 279
295 294 294 294 294 294 293 293 293 292 292 291 290 290 289 288 286 284 283 283 283 283 283 283 283 282 282 281 281 281 282 282 282 281 280 280 279 279 279 279 279 279
295 295 295 295 294 294 294 293 293 293 292 291 290 290 289 288 286 284 283 283 283 283 283 283 283 282 281 281 281 281 281 282 282 281 281 280 279 279 279 279 279 279
295 295 295 295 294 294 294 294 293 293 292 291 290 290 289 288 286 284 283 283 283 282 283 283 283 282 281 281 281 281 281 282 282 281 281 280 279 279 279 279 279 280
296 296 295 295 294 294 294 294 293 293 292 291 291 290 289 289 287 284 283 283 282 282 282 282 283 282 282 281 281 281 282 282 282 281 281 280 279 279 279 279 279 280
296 296 295 295 295 294 294 294 294 293 292 292 291 290 289 289 287 284 283 283 282 282 282 282 282 282 282 281 281 281 282 282 282 282 281 280 279 279 279 279 279 280
296 296 295 295 294 294 294 294 293 293 292 292 291 290 289 289 286 284 283 282 282 282 282 282 282 282 282 281 281 281 282 282 282 281 281 280 279 279 278 279 279 280
296 296 295 295 294 294 294 294 293 293 292 292 291 290 289 289 286 283 282 282 282 282 282 282 282 282 282 281 281 281 282 282 282 281 281 280 279 279 279 279 279 280
296 296 295 295 295 294 294 294 294 293 292 291 291 290 289 288 285 283 282 282 282 282 282 282 282 282 282 281 281 281 282 282 282 281 281 281 280 279 279 279 279 279
296 296 295 295 295 295 295 294 294 293 292 291 290 290 289 288 285 283 282 282 282 282 282 282 282 282 282 281 281 281 281 282 282 281 281 281 280 279 279 279 279 279
297 296 296 295 295 295 295 295 294 293 292 291 290 290 289 288 285 283 282 282 282 282 282 282 282 282 282 281 281 281 281 281 282 281 281 281 281 280 279 279 279 279
297 296 296 295 295 295 296 295 294 293 292 291 290 290 289 288 285 283 282 282 282 282 282 282 282 282 282 281 281 281 281 281 281 281 281 281 281 280 279 280 279 279
Wind_Speed
12 12 11 11 11 12 13 13 14 15 16 16 16 17 19 20 22 23 24 25 27 28 29 29 29 30 30 30 29 28 27 26 25 25 24 23 23 22 21 21 21 20
11 10 11 11 12 12 13 13 14 14 15 15 16 18 19 20 22 23 25 26 27 28 28 28 29 29 30 30 29 28 27 27 25 25 24 23 22 22 21 21 20 19
10 10 10 11 12 12 13 13 14 14 15 16 17 18 19 20 22 24 26 27 28 27 27 28 29 29 29 29 29 28 28 27 26 24 24 23 23 22 21 20 19 18
10 10 11 11 12 12 13 13 13 14 16 17 18 18 20 22 23 25 26 27 27 26 27 28 29 29 29 29 29 29 28 26 25 24 24 23 23 22 21 20 19 18
10 11 11 11 12 12 12 13 14 16 17 17 18 19 21 23 24 26 26 26 26 26 27 28 29 29 29 29 29 28 28 26 25 24 24 24 23 22 20 20 18 18
10 10 10 11 11 12 13 14 16 16 17 17 19 20 22 24 25 26 25 25 25 26 28 28 29 30 30 30 29 29 28 27 25 24 24 24 22 21 20 19 19 18
10 10 10 10 11 13 14 16 16 17 17 18 20 22 23 24 25 25 24 25 26 27 28 29 30 30 30 30 30 29 28 27 25 24 24 24 22 20 19 19 19 19
9 9 10 11 13 14 15 16 17 17 18 20 21 23 24 24 24 23 24 25 26 27 28 29 30 30 31 31 30 29 28 26 25 24 24 23 21 20 19 19 20 19
8 9 11 12 14 15 16 17 18 19 20 21 22 23 23 23 23 23 24 26 27 28 29 30 30 31 31 30 30 29 27 25 24 24 24 23 21 19 20 20 20 20
9 10 12 14 15 16 17 18 19 20 21 21 22 22 22 22 23 24 25 26 27 28 29 30 31 31 31 30 29 28 26 24 24 24 23 23 20 20 20 20 19 19
10 11 13 14 15 17 18 19 20 20 20 20 20 21 21 22 23 25 25 26 28 29 30 31 31 31 31 30 29 27 25 24 24 23 21 20 20 19 19 19 19 18
11 12 13 15 16 17 18 18 19 20 20 21 21 21 22 23 24 25 26 27 28 29 30 31 31 31 31 30 29 27 25 24 23 21 19 19 18 19 19 19 18 17
11 13 14 15 16 17 17 19 20 21 22 22 21 21 22 23 24 25 26 27 28 29 30 31 32 31 30 29 28 26 24 23 20 19 18 18 18 19 19 19 18 16
11 12 14 14 15 16 18 19 22 23 24 23 22 22 23 24 25 25 26 27 29 30 31 32 31 31 30 28 26 25 23 21 20 18 18 18 19 19 19 19 18 15
11 12 13 14 15 16 18 20 22 25 26 26 24 23 23 24 25 26 27 28 29 31 32 32 30 29 28 27 25 24 22 21 20 18 17 18 19 19 19 19 18 15
10 12 14 15 15 16 17 19 22 25 27 27 26 24 24 24 25 26 28 29 31 32 31 30 28 27 26 25 23 23 22 21 19 17 17 18 19 19 20 20 18 15
10 12 13 13 14 15 16 19 22 24 27 28 27 25 24 25 26 27 29 30 31 31 30 29 27 26 25 23 22 21 21 20 19 17 16 17 19 20 20 20 18 15
9 10 11 12 13 15 17 19 22 24 26 28 28 27 26 26 27 29 29 30 30 29 29 28 27 26 24 22 21 20 19 19 18 17 16 17 19 20 20 20 18 16
8 9 10 12 13 16 18 20 21 23 25 28 29 28 27 27 27 28 29 30 30 29 28 27 26 25 24 22 20 19 19 18 17 16 15 16 18 19 20 19 18 17
8 9 11 14 15 17 18 20 21 23 25 28 30 29 27 26 27 28 29 30 30 29 28 27 26 25 23 21 20 19 18 18 16 15 15 16 18 19 20 19 17 16
8 11 13 15 16 17 18 19 21 22 25 28 30 29 27 26 27 28 29 30 30 29 28 27 26 25 23 21 19 19 19 17 16 15 15 15 17 19 19 18 17 16
9 12 14 16 17 17 18 19 20 22 25 28 30 29 27 26 26 28 29 30 30 29 27 26 25 24 22 21 19 19 19 17 16 15 15 15 17 19 19 18 17 16
9 12 14 16 17 17 18 19 20 22 25 28 29 28 26 26 26 28 29 30 30 29 27 25 24 23 22 20 19 19 19 18 16 15 15 15 17 19 19 18 17 15
10 13 15 16 17 17 18 19 20 22 25 28 29 28 26 26 27 28 29 29 29 28 27 26 24 23 22 20 19 19 18 18 17 16 16 16 17 18 20 20 18 15
11 13 15 16 17 17 17 18 19 21 24 27 28 27 26 26 26 27 28 28 28 28 27 26 25 23 22 20 19 18 18 18 17 17 17 17 17 19 20 21 19 16
12 14 15 16 17 17 17 17 18 21 24 26 26 26 26 25 26 27 27 27 28 27 27 26 25 24 21 20 18 18 18 18 18 17 18 18 18 20 21 22 21 18
Wind_Direction
330 329 329 330 329 329 329 329 328 329 330 330 332 336 342 346 346 344 343 344 344 343 342 341 340 338 338 338 340 341 342 343 343 341 341 342 340 339 337 331 329 330
335 331 330 330 330 330 329 329 329 329 330 333 339 344 346 345 342 342 343 344 344 342 340 340 339 338 339 340 342 344 345 346 345 342 341 341 339 337 335 332 332 334
336 332 331 330 329 329 330 330 330 331 336 341 345 346 343 342 342 343 344 343 342 341 340 339 339 339 340 343 345 347 349 348 344 342 342 341 339 338 337 336 338 340
335 333 330 330 329 329 330 330 332 338 344 347 346 343 342 342 343 343 342 341 340 340 340 340 340 341 343 346 348 349 349 348 345 343 343 343 341 341 341 342 344 344
333 331 329 329 330 330 331 334 341 346 348 346 344 342 342 342 342 341 341 341 340 341 341 341 341 343 346 349 350 350 350 349 348 346 345 345 344 344 346 348 348 346
330 328 329 331 331 333 338 344 348 349 347 346 343 342 342 341 340 340 341 341 342 342 342 343 345 347 349 351 352 352 351 351 350 348 348 347 347 349 351 350 349 348
327 329 332 334 336 341 347 349 350 348 347 346 343 342 340 339 340 340 342 343 343 343 344 346 348 350 351 352 353 353 352 351 351 350 349 348 350 354 354 351 350 349
329 332 336 341 346 350 351 351 350 349 348 345 342 340 338 339 341 342 344 345 345 345 347 349 350 352 354 354 354 353 353 352 352 351 350 350 354 358 356 352 350 350
334 340 345 351 354 354 353 353 352 350 347 343 340 339 339 341 343 345 347 347 348 348 349 351 353 354 355 354 353 354 354 353 354 353 351 351 358 1 357 352 349 349
344 351 356 358 358 358 356 354 351 348 345 343 342 343 344 345 346 348 349 349 349 350 351 353 355 355 354 353 354 355 356 356 356 355 351 352 0 1 353 348 347 348
357 1 4 3 1 359 357 355 353 351 350 349 349 349 348 348 349 350 351 351 351 352 354 355 355 354 354 354 355 356 358 359 358 353 350 356 2 359 350 347 349 350
7 10 9 5 3 2 2 2 2 360 358 356 353 351 350 351 352 352 352 353 354 354 355 355 354 354 354 354 354 357 0 1 355 348 351 360 1 355 349 349 352 353
16 15 11 8 8 9 9 9 7 4 1 358 355 353 352 353 353 354 354 355 356 356 356 356 355 354 354 353 354 358 1 359 350 348 355 1 357 353 351 351 354 355
19 16 14 14 14 14 14 13 11 9 5 1 358 356 355 354 354 355 356 357 357 357 357 356 355 353 352 352 354 358 360 355 347 350 358 359 354 352 352 353 355 356
22 22 22 23 21 20 18 15 14 12 8 4 0 357 356 355 354 355 358 359 360 359 357 355 354 352 351 352 354 356 356 352 347 352 358 356 352 352 352 353 354 355
27 29 28 27 24 20 16 14 12 11 9 6 1 358 356 355 355 357 359 1 1 359 356 353 353 352 352 353 354 353 352 348 347 352 356 352 350 351 352 351 350 351
31 30 27 22 18 15 12 10 8 8 8 7 3 358 356 355 356 358 0 1 0 356 354 353 353 352 352 353 353 351 347 345 346 350 353 350 348 350 350 348 347 349
31 24 18 13 10 8 7 4 3 4 7 6 3 359 356 355 356 358 359 360 359 356 354 353 353 353 352 352 352 350 345 342 343 346 348 349 348 348 347 345 345 347
22 10 4 2 358 357 359 358 358 1 4 4 1 358 356 355 356 356 357 357 357 356 355 353 352 352 351 350 350 347 344 341 341 343 345 347 348 347 346 344 344 343
7 358 352 349 347 347 350 352 354 357 1 1 359 357 355 354 355 355 355 355 356 356 355 353 351 350 349 349 347 344 343 341 340 340 343 346 349 348 345 343 341 340
356 350 344 341 341 342 344 348 351 355 358 358 356 355 355 354 354 354 354 354 355 355 354 352 351 349 347 346 344 341 342 341 340 340 341 345 351 350 346 343 339 338
346 343 340 339 339 339 343 346 349 352 355 355 354 354 354 354 354 354 353 353 353 353 353 351 350 347 344 343 341 339 340 341 340 339 339 345 351 350 348 345 340 336
340 338 338 338 337 339 343 346 349 350 351 352 352 352 353 354 355 354 353 352 351 351 351 351 350 346 343 341 339 337 338 340 340 339 340 344 349 350 349 348 342 335
333 332 334 336 336 338 342 346 348 348 348 349 349 350 352 354 354 354 352 350 349 349 349 349 349 347 343 339 337 335 336 339 339 339 339 342 347 349 350 349 343 336
325 326 331 333 334 337 341 344 345 345 346 347 348 349 351 352 353 353 351 349 348 348 348 348 349 347 342 337 335 334 334 336 337 337 337 341 346 347 349 349 345 339
318 322 327 329 331 334 337 339 341 344 345 345 346 348 349 351 352 352 350 349 349 348 347 347 347 346 342 336 333 333 333 333 335 334 334 339 343 344 344 346 346 342